• In Hungary
  • List of Countries
  • For 7 days
  • Water Temperature
  • Satellite Maps
  • Weather Map
  • News
  • Weather Widgets
  • user-avatar
    Login

    Hourly Weather Horodys'ka

    Today, 23 October, Monday

    Time Temperature Precipitation Wind Pressure Humidity
    00:00 +5°C° 0 mm 5 mps 724 mmHg 85%
    01:00 +5°C° 0 mm 5 mps 723 mmHg 85%
    02:00 +4°C° 0 mm 4 mps 723 mmHg 84%
    03:00 +4°C° 0.1 mm 4 mps 722 mmHg 84%
    04:00 +3°C° 0.1 mm 5 mps 722 mmHg 85%
    05:00 +3°C° 0.1 mm 5 mps 722 mmHg 85%
    06:00 +3°C° 0.1 mm 5 mps 722 mmHg 85%
    07:00 +5°C° 0.1 mm 5 mps 722 mmHg 85%
    08:00 +5°C° 0.1 mm 5 mps 721 mmHg 84%
    09:00 +5°C° 0.1 mm 5 mps 721 mmHg 83%
    10:00 +5°C° 0.1 mm 5 mps 721 mmHg 82%
    11:00 +6°C° 0.1 mm 5 mps 721 mmHg 81%
    12:00 +6°C° 0.3 mm 5 mps 721 mmHg 82%
    13:00 +6°C° 0.3 mm 5 mps 721 mmHg 83%
    14:00 +6°C° 0.3 mm 5 mps 721 mmHg 83%
    15:00 +6°C° 0.5 mm 5 mps 721 mmHg 85%
    16:00 +6°C° 0.5 mm 5 mps 721 mmHg 86%
    17:00 +6°C° 0.5 mm 5 mps 721 mmHg 88%
    18:00 +6°C° 0.6 mm 5 mps 722 mmHg 88%
    19:00 +6°C° 0.6 mm 5 mps 722 mmHg 89%
    20:00 +5°C° 0.6 mm 5 mps 722 mmHg 89%
    21:00 +5°C° 0.6 mm 5 mps 723 mmHg 89%
    22:00 +5°C° 0.6 mm 5 mps 723 mmHg 88%
    23:00 +3°C° 0.6 mm 5 mps 723 mmHg 88%

    Tomorrow, 24 October, Tuesday

    Time Temperature Precipitation Wind Pressure Humidity
    00:00 +3°C° 0.3 mm 5 mps 724 mmHg 88%
    01:00 +3°C° 0.3 mm 5 mps 724 mmHg 88%
    02:00 +3°C° 0.3 mm 5 mps 725 mmHg 88%
    03:00 +3°C° 0.3 mm 5 mps 725 mmHg 88%
    04:00 +2°C° 0.3 mm 5 mps 725 mmHg 88%
    05:00 +2°C° 0.3 mm 5 mps 726 mmHg 88%
    06:00 +2°C° 0.3 mm 5 mps 726 mmHg 87%
    07:00 +2°C° 0.3 mm 5 mps 727 mmHg 86%
    08:00 +2°C° 0.3 mm 5 mps 728 mmHg 86%
    09:00 +2°C° 0.2 mm 5 mps 728 mmHg 84%
    10:00 +3°C° 0.2 mm 4 mps 729 mmHg 82%
    11:00 +4°C° 0.2 mm 4 mps 729 mmHg 79%
    12:00 +4°C° 0 mm 4 mps 730 mmHg 76%
    13:00 +5°C° 0 mm 4 mps 730 mmHg 72%
    14:00 +6°C° 0 mm 4 mps 730 mmHg 69%
    15:00 +5°C° 0 mm 3 mps 731 mmHg 71%
    16:00 +5°C° 0 mm 3 mps 731 mmHg 73%
    17:00 +5°C° 0 mm 2 mps 731 mmHg 76%
    18:00 +4°C° 0 mm 2 mps 731 mmHg 77%
    19:00 +4°C° 0 mm 2 mps 732 mmHg 79%
    20:00 +3°C° 0 mm 2 mps 732 mmHg 81%
    21:00 +2°C° 0 mm 2 mps 733 mmHg 82%
    22:00 +2°C° 0 mm 2 mps 733 mmHg 82%
    23:00 +1°C° 0 mm 2 mps 733 mmHg 82%

    Day after tomorrow, 25 October, Wednesday

    Time Temperature Precipitation Wind Pressure Humidity
    00:00 +1°C° 0 mm 2 mps 733 mmHg 82%
    01:00 +1°C° 0 mm 2 mps 733 mmHg 82%
    02:00 +1°C° 0 mm 2 mps 734 mmHg 81%
    03:00 -1°C° 0 mm 2 mps 734 mmHg 81%
    04:00 -1°C° 0 mm 2 mps 734 mmHg 82%
    05:00 -1°C° 0 mm 2 mps 734 mmHg 82%
    06:00 -1°C° 0 mm 2 mps 734 mmHg 80%
    07:00 -1°C° 0 mm 2 mps 734 mmHg 79%
    08:00 -1°C° 0 mm 2 mps 734 mmHg 77%
    09:00 +1°C° 0 mm 3 mps 734 mmHg 71%
    10:00 +2°C° 0 mm 3 mps 734 mmHg 64%
    11:00 +4°C° 0 mm 4 mps 734 mmHg 58%
    12:00 +5°C° 0 mm 4 mps 734 mmHg 56%
    13:00 +6°C° 0 mm 4 mps 734 mmHg 53%
    14:00 +6°C° 0 mm 4 mps 734 mmHg 51%
    15:00 +6°C° 0 mm 4 mps 733 mmHg 54%
    16:00 +5°C° 0 mm 3 mps 733 mmHg 58%
    17:00 +4°C° 0 mm 3 mps 733 mmHg 61%
    18:00 +4°C° 0 mm 3 mps 733 mmHg 61%
    19:00 +4°C° 0 mm 4 mps 732 mmHg 61%
    20:00 +4°C° 0 mm 4 mps 732 mmHg 61%
    21:00 +4°C° 0 mm 4 mps 732 mmHg 61%
    22:00 +4°C° 0 mm 3 mps 732 mmHg 62%
    23:00 +4°C° 0 mm 3 mps 732 mmHg 63%

    26 October, Thursday

    Time Temperature Precipitation Wind Pressure Humidity
    00:00 +4°C° 0 mm 3 mps 732 mmHg 64%
    01:00 +4°C° 0 mm 3 mps 732 mmHg 65%
    02:00 +5°C° 0 mm 3 mps 732 mmHg 66%
    03:00 +5°C° 0 mm 3 mps 732 mmHg 67%
    04:00 +7°C° 0 mm 3 mps 731 mmHg 67%
    05:00 +7°C° 0 mm 3 mps 731 mmHg 68%
    06:00 +6°C° 0.2 mm 4 mps 731 mmHg 71%
    07:00 +7°C° 0.2 mm 4 mps 731 mmHg 74%
    08:00 +7°C° 0.2 mm 4 mps 731 mmHg 77%
    09:00 +8°C° 0.1 mm 5 mps 731 mmHg 76%
    10:00 +9°C° 0.1 mm 5 mps 731 mmHg 75%
    11:00 +10°C° 0.1 mm 5 mps 731 mmHg 74%
    12:00 +10°C° 0 mm 5 mps 731 mmHg 73%
    13:00 +12°C° 0 mm 5 mps 731 mmHg 72%
    14:00 +12°C° 0 mm 5 mps 731 mmHg 71%
    15:00 +12°C° 0 mm 4 mps 730 mmHg 72%
    16:00 +11°C° 0 mm 4 mps 730 mmHg 74%
    17:00 +11°C° 0 mm 3 mps 730 mmHg 75%
    18:00 +10°C° 0 mm 3 mps 730 mmHg 76%
    19:00 +10°C° 0 mm 4 mps 729 mmHg 76%
    20:00 +10°C° 0 mm 4 mps 729 mmHg 76%
    21:00 +10°C° 0.4 mm 4 mps 728 mmHg 77%
    22:00 +10°C° 0.4 mm 4 mps 728 mmHg 78%
    23:00 +10°C° 0.4 mm 4 mps 727 mmHg 79%

    27 October, Friday

    Time Temperature Precipitation Wind Pressure Humidity
    00:00 +9°C° 0.4 mm 5 mps 727 mmHg 78%
    01:00 +9°C° 0.4 mm 5 mps 727 mmHg 77%
    02:00 +10°C° 0.4 mm 6 mps 726 mmHg 76%
    03:00 +10°C° 0.2 mm 6 mps 726 mmHg 77%
    04:00 +9°C° 0.2 mm 6 mps 725 mmHg 78%
    05:00 +9°C° 0.2 mm 6 mps 725 mmHg 79%
    06:00 +9°C° 0.3 mm 6 mps 724 mmHg 80%
    07:00 +9°C° 0.3 mm 5 mps 724 mmHg 81%
    08:00 +9°C° 0.3 mm 5 mps 724 mmHg 82%
    09:00 +10°C° 0.2 mm 5 mps 723 mmHg 80%
    10:00 +12°C° 0.2 mm 5 mps 723 mmHg 78%
    11:00 +12°C° 0.2 mm 5 mps 722 mmHg 76%
    12:00 +12°C° 1.6 mm 4 mps 722 mmHg 78%
    13:00 +11°C° 1.6 mm 4 mps 721 mmHg 80%
    14:00 +11°C° 1.6 mm 4 mps 721 mmHg 81%
    15:00 +10°C° 1 mm 4 mps 721 mmHg 84%
    16:00 +10°C° 1 mm 4 mps 720 mmHg 87%
    17:00 +8°C° 1 mm 4 mps 720 mmHg 90%
    18:00 +8°C° 0.7 mm 4 mps 720 mmHg 89%
    19:00 +8°C° 0.7 mm 5 mps 720 mmHg 88%
    20:00 +7°C° 0.7 mm 5 mps 720 mmHg 87%
    21:00 +7°C° 0.4 mm 5 mps 720 mmHg 87%
    22:00 +7°C° 0.4 mm 5 mps 720 mmHg 87%
    23:00 +6°C° 0.4 mm 5 mps 720 mmHg 88%

    28 October, Saturday

    Time Temperature Precipitation Wind Pressure Humidity
    00:00 +6°C° 0.1 mm 5 mps 720 mmHg 88%
    01:00 +6°C° 0.1 mm 5 mps 720 mmHg 89%
    02:00 +6°C° 0.1 mm 5 mps 720 mmHg 90%
    03:00 +6°C° 0.1 mm 5 mps 720 mmHg 89%
    04:00 +6°C° 0.1 mm 5 mps 720 mmHg 89%
    05:00 +6°C° 0.1 mm 5 mps 720 mmHg 88%
    06:00 +6°C° 0.1 mm 5 mps 720 mmHg 88%
    07:00 +6°C° 0.1 mm 5 mps 720 mmHg 88%
    08:00 +6°C° 0.1 mm 5 mps 720 mmHg 87%
    09:00 +5°C° 0.3 mm 6 mps 720 mmHg 85%
    10:00 +7°C° 0.3 mm 6 mps 720 mmHg 82%
    11:00 +7°C° 0.3 mm 6 mps 720 mmHg 79%
    12:00 +7°C° 0.2 mm 6 mps 719 mmHg 75%
    13:00 +7°C° 0.2 mm 6 mps 719 mmHg 70%
    14:00 +7°C° 0.2 mm 6 mps 718 mmHg 65%
    15:00 +7°C° 0 mm 5 mps 718 mmHg 69%
    16:00 +6°C° 0 mm 4 mps 717 mmHg 72%
    17:00 +5°C° 0 mm 3 mps 716 mmHg 76%
    18:00 +5°C° 0.1 mm 3 mps 716 mmHg 77%
    19:00 +5°C° 0.1 mm 4 mps 715 mmHg 79%
    20:00 +5°C° 0.1 mm 4 mps 714 mmHg 80%
    21:00 +5°C° 0.4 mm 4 mps 713 mmHg 81%
    22:00 +5°C° 0.4 mm 5 mps 712 mmHg 81%
    23:00 +5°C° 0.4 mm 5 mps 711 mmHg 81%

    29 October, Sunday

    Time Temperature Precipitation Wind Pressure Humidity
    00:00 +4°C° 0.7 mm 6 mps 711 mmHg 82%
    01:00 +4°C° 0.7 mm 6 mps 710 mmHg 83%
    02:00 +4°C° 0.7 mm 6 mps 710 mmHg 84%
    03:00 +4°C° 0.1 mm 7 mps 710 mmHg 84%
    04:00 +4°C° 0.1 mm 7 mps 710 mmHg 83%
    05:00 +3°C° 0.1 mm 7 mps 710 mmHg 83%
    06:00 +2°C° 0.4 mm 8 mps 710 mmHg 83%
    07:00 +2°C° 0.4 mm 8 mps 710 mmHg 82%
    08:00 +2°C° 0.4 mm 9 mps 710 mmHg 81%
    09:00 +2°C° 0.9 mm 9 mps 711 mmHg 81%
    10:00 +2°C° 0.9 mm 10 mps 711 mmHg 81%
    11:00 +2°C° 0.9 mm 10 mps 711 mmHg 81%
    12:00 +2°C° 1.4 mm 10 mps 712 mmHg 81%
    13:00 +2°C° 1.4 mm 11 mps 712 mmHg 82%
    14:00 +2°C° 1.4 mm 11 mps 713 mmHg 82%
    15:00 +2°C° 0.9 mm 10 mps 713 mmHg 82%
    16:00 +2°C° 0.9 mm 10 mps 714 mmHg 82%
    17:00 +2°C° 0.9 mm 10 mps 715 mmHg 82%
    18:00 +2°C° 0.5 mm 10 mps 716 mmHg 82%
    19:00 +2°C° 0.5 mm 10 mps 716 mmHg 82%
    20:00 +1°C° 0.5 mm 10 mps 717 mmHg 82%
    21:00 +1°C° 0.3 mm 9 mps 718 mmHg 81%
    22:00 +1°C° 0.3 mm 9 mps 718 mmHg 81%
    23:00 0°C° 0.3 mm 9 mps 719 mmHg 80%
    Show more